Location: Sungai Jaoh
(2.9167°N, 113.9167°E)
Time: 18:32:48
(UTC+00:00)

Hubble Space Telescope - Visible Passes

Search period start: 24 September 2021 00:00
Search period end: 04 October 2021 00:00
Orbit: 535 x 539 km, 28.5° (Epoch: 23 September)

Date Brightness Start Highest point End Pass type
(mag) Time Alt. Az. Time Alt. Az. Time Alt. Az.
24 Sep 1.6 11:45:20 10° NW 11:48:29 38° N 11:48:29 38° N visible
25 Sep 0.7 11:34:10 10° NW 11:38:14 63° NNE 11:38:32 60° NE visible
26 Sep 0.6 11:23:05 10° WNW 11:27:12 90° NNE 11:28:39 39° ESE visible
27 Sep 1.1 11:12:05 10° WNW 11:16:10 63° SSW 11:18:49 21° SE visible
27 Sep 3.5 21:28:48 10° S 21:30:20 12° SSE 21:31:52 10° SE visible
28 Sep 1.7 11:01:13 10° WNW 11:05:08 43° SSW 11:09:02 10° SE visible
28 Sep 3.3 21:16:44 10° S 21:19:21 16° SSE 21:21:57 10° ESE visible
29 Sep 2.4 10:50:26 10° W 10:54:05 31° SSW 10:57:46 10° SSE visible
29 Sep 2.9 21:05:06 10° SSW 21:08:20 22° SSE 21:11:34 10° E visible
30 Sep 2.9 10:39:49 10° W 10:43:04 22° SSW 10:46:20 10° SSE visible
30 Sep 2.4 20:55:01 18° SSW 20:57:19 30° SSE 21:00:57 10° E visible
01 Oct 1.7 20:45:13 34° S 20:46:17 42° SSE 20:50:11 10° ENE visible
02 Oct 1.1 20:35:25 60° SE 20:35:25 60° SE 20:39:19 10° ENE visible
03 Oct 1.9 20:25:35 40° ENE 20:25:35 40° ENE 20:28:19 10° ENE visible
